[[{"header":{"parameterUnit":"m.s-1","parameterCategory":1,"la1":30.2992,"la2":30.254,"lo1":-89.0895,"lo2":-89.0443,"dy":0.0025,"dx":0.0025,"nx":19,"ny":19,"refTime":"2026-05-09T21:00:00:Z","depth":0,"parameterNumber":2,"parameterNumberName":"U-component_of_WINDS"},"data":[0,0,0,0.5535,0.5535,0.5533,0.5533,0.5539,0.5539,0,0,0,0,0,0,0,0,0,0,0,0.5541,0.5542,0.5535,0.5535,0.5533,0.5533,0.5538,0.5539,0,0,0,0,0,0,0,0,0,0,0,0.5541,0.5542,0.5542,0.5535,0.5533,0.5533,0.5538,0.5537,0,0,0,0,0,0,0,0,0,0,0.5538,0.5549,0.5541,0.5542,0.5535,0.5533,0.5533,0.5537,0.5537,0.5543,0,0.5551,0,0.5545,0.554,0.554,0,0,0,0.5531,0.5549,0.5543,0.5542,0.5535,0.5533,0.5533,0.5537,0.5537,0.5544,0.5551,0.5551,0.5545,0.554,0.554,0.559,0.559,0,0,0.5531,0.5544,0.5543,0.5544,0.5545,0.5533,0.5533,0.5537,0.5545,0.5551,0.5551,0.5545,0.554,0.554,0.559,0.559,0,0,0,0.5534,0.5544,0.5538,0.5544,0.5543,0.5533,0.5533,0.5545,0.5542,0.5551,0.5545,0.554,0.554,0.5589,0.559,0.5623,0,0,0,0.5534,0.5546,0.5538,0.5546,0.5543,0.5544,0.5541,0.5542,0.5542,0.5545,0.554,0.554,0.5589,0.5589,0.5621,0.5637,0,0,0,0.554,0.5547,0.5548,0.5547,0.5547,0.5544,0.5541,0.5541,0.5539,0.554,0.554,0.5588,0.5589,0.562,0.5634,0.5653,0,0,0,0.5549,0.5579,0.5549,0.558,0.5547,0.5565,0.554,0.5553,0.5558,0.554,0.5589,0.559,0.5619,0.5632,0.5652,0.5672,0.5682,0,0,0.5594,0.5585,0.5602,0.5575,0.5602,0.5564,0.5595,0.5587,0.5576,0.5586,0.5587,0.5622,0.5634,0.5653,0.5732,0.574,0,0,0,0.562,0.5633,0.5637,0.5642,0.5637,0.5633,0.5619,0.5616,0.5624,0.5584,0.5634,0.5641,0.5651,0.566,0.5667,0.5675,0.5595,0.5594,0.5594,0.5703,0.5685,0.5712,0.5695,0.57,0.5685,0.5687,0.568,0.5662,0.5674,0.5677,0.5727,0.5738,0.5743,0.5752,0.5687,0.5687,0.5687,0.5687,0.5766,0.578,0.5755,0.5771,0.5753,0.5766,0.5753,0.5739,0.5749,0.5724,0.5733,0.5707,0.5752,0.5759,0.5689,0.5689,0.5689,0.5688,0.5688,0.5817,0.5821,0.5817,0.5822,0.5827,0.5808,0.5819,0.5802,0.5786,0.5794,0.5794,0.5794,0.5791,0.5796,0.5796,0.5796,0.5796,0.5796,0.5796,0.5872,0.5866,0.5877,0.5873,0.5873,0.5872,0.5856,0.5856,0.5851,0.5838,0.5838,0.5818,0.576,0.5746,0.5799,0.5798,0.5798,0.5798,0.5798,0.5942,0.5923,0.594,0.594,0.5934,0.594,0.5918,0.5919,0.5916,0.5921,0.5899,0.586,0.5849,0.5844,0.5831,0.5904,0.5904,0.5904,0.5904,0.5985,0.5978,0.599,0.5992,0.5991,0.5973,0.5991,0.5979,0.5964,0.5961,0.5948,0.593,0.5925,0.5918,0.5911,0.5899,0.5987,0.5987,0.5987,0.6026,0.6018,0.6037,0.6022,0.6015,0.6009,0.6026,0.6028,0.6007,0.599,0.5958,0.5954,0.5926,0.5918,0.59,0.5889,0.5867,0,0]},{"header":{"parameterUnit":"m.s-1","parameterCategory":1,"la1":30.2992,"la2":30.254,"lo1":-89.0895,"lo2":-89.0443,"dy":0.0025,"dx":0.0025,"nx":19,"ny":19,"refTime":"2026-05-09T21:00:00:Z","depth":0,"parameterNumber":3,"parameterNumberName":"V-component_of_WINDS"},"data":[0,0,0,2.3775,2.3776,2.3827,2.3827,2.3896,2.3897,0,0,0,0,0,0,0,0,0,0,0,2.3764,2.3764,2.3775,2.3776,2.3827,2.3827,2.3896,2.3897,0,0,0,0,0,0,0,0,0,0,0,2.3763,2.3764,2.3765,2.3777,2.3827,2.3827,2.3896,2.3856,0,0,0,0,0,0,0,0,0,0,2.3806,2.3799,2.3764,2.3765,2.3777,2.3827,2.3827,2.3854,2.3858,2.3875,0,2.3892,0,2.3896,2.3902,2.3902,0,0,0,2.3773,2.3796,2.3806,2.3765,2.3777,2.3827,2.3803,2.3856,2.3861,2.3881,2.3893,2.3896,2.3897,2.3902,2.3903,2.4012,2.4013,0,0,2.377,2.3775,2.3802,2.3809,2.3803,2.3802,2.3805,2.3859,2.3872,2.3893,2.3897,2.3898,2.3903,2.3903,2.4011,2.4012,0,0,0,2.3764,2.3773,2.3782,2.3807,2.3816,2.3803,2.3807,2.387,2.3872,2.3898,2.3899,2.3903,2.3904,2.4011,2.4012,2.4049,0,0,0,2.3763,2.3769,2.3781,2.3784,2.3815,2.3844,2.3817,2.3869,2.3875,2.3898,2.3903,2.3905,2.401,2.4011,2.4046,2.4066,0,0,0,2.3759,2.3769,2.3778,2.3784,2.3806,2.3843,2.3848,2.387,2.3876,2.3902,2.3905,2.401,2.4011,2.4044,2.4062,2.4096,0,0,0,2.3756,2.381,2.3778,2.3838,2.3806,2.3866,2.3848,2.3892,2.3919,2.3904,2.401,2.4012,2.4043,2.406,2.4093,2.4125,2.4139,0,0,2.3826,2.3818,2.3853,2.3826,2.3893,2.3857,2.3929,2.3949,2.3947,2.399,2.3993,2.4047,2.4062,2.4095,2.4214,2.4225,0,0,0,2.3876,2.3902,2.3918,2.3945,2.3962,2.3978,2.3987,2.3994,2.403,2.3971,2.4068,2.4077,2.4096,2.4111,2.412,2.4137,2.4019,2.4019,2.4018,2.3982,2.3977,2.4033,2.4034,2.406,2.4068,2.4088,2.4099,2.4086,2.4109,2.4122,2.4194,2.4212,2.4219,2.4236,2.4138,2.4138,2.4138,2.4138,2.4084,2.4118,2.4099,2.4148,2.4141,2.4181,2.419,2.418,2.4215,2.4184,2.4201,2.4169,2.4231,2.4246,2.4141,2.414,2.414,2.414,2.414,2.4153,2.4168,2.4176,2.4213,2.4241,2.4239,2.4274,2.4267,2.426,2.4276,2.4289,2.4288,2.4287,2.4283,2.4283,2.4283,2.4284,2.4284,2.4284,2.4221,2.4229,2.426,2.4282,2.4297,2.4316,2.4323,2.4338,2.4352,2.4343,2.4343,2.4328,2.4238,2.4216,2.4288,2.4287,2.4287,2.4286,2.4286,2.4328,2.4302,2.435,2.4365,2.4389,2.4417,2.4407,2.4436,2.4447,2.4464,2.4445,2.438,2.4371,2.4364,2.4345,2.4446,2.4446,2.4446,2.4446,2.4386,2.4381,2.4428,2.4452,2.4475,2.447,2.4523,2.4528,2.453,2.4536,2.452,2.4495,2.4487,2.4483,2.4473,2.4456,2.4582,2.4582,2.4582,2.4451,2.4447,2.4495,2.4496,2.4514,2.4529,2.4578,2.4606,2.4602,2.4588,2.454,2.4534,2.4493,2.4481,2.4466,2.4451,2.4419,0,0]}]]